Location: Mercogliano
(40.9167°N, 14.7333°E)
Time: 13:19:03
(UTC+00:00)

Abrixas rocket - Pass Details

Date: 18 September 2020
Orbit: 328 x 335 km, 48.4° (Epoch: 28 October)

Event Time Altitude Azimuth Distance (km) Brightness Sun altitude
Rises 17:58:56 0° 275° (W) 2,092 7.9 -11.0°
Reaches altitude 10° 18:01:11 10° 292° (WNW) 1,255 6.1 -11.4°
Maximum altitude 18:03:28 22° 347° (NNW) 785 3.9 -11.9°
Drops below altitude 10° 18:05:45 10° 41° (NE) 1,253 4.4 -12.3°
Enters shadow 18:05:55 - 43° (NE) 1,311 4.5 -12.3°
